Regional Weather Roundup
Issued by NWS

Home | Current Version | Previous Version | Text Only | Print | Product List | Glossary On
Versions: 1 2 3 4 5 6 7 8 9 10 11 12 13 14 15 16 17 18 19 20 21 22 23 24 25 26 27 28 29 30 31 32 33 34 35 36 37 38 39 40 41 42 43 44 45 46 47 48 49 50
000
ASUS46 KPQR 180910
RWROR

OREGON REGIONAL WEATHER ROUNDUP
NATIONAL WEATHER SERVICE PORTLAND OR
200 AM PDT SAT APR 18 2015

NOTE: "FAIR" INDICATES FEW OR NO CLOUDS BELOW 12,000 FEET WITH
NO SIGNIFICANT WEATHER AND/OR OBSTRUCTIONS TO VISIBILITY.

ORZ001>013-181000-
NORTHWEST OREGON


CITY           SKY/WX    TMP DP  RH WIND       PRES   REMARKS
ASTORIA        CLEAR     46  43  89 VRB5      30.32F
NEWPORT        CLEAR     46  45  93 N5        30.31F
PORTLAND       CLEAR     51  45  79 NW8       30.28S
VANCOUVER WA   CLEAR     52  43  71 N5        30.28R
SCAPPOOSE      CLEAR     51  42  71 N9        30.27R
HILLSBORO      CLEAR     50  42  74 W8        30.27S
AURORA         CLEAR     51  41  68 NW5       30.28S
MCMINNVILLE    CLEAR     46  43  89 W3        30.28R
SALEM          CLEAR     47  42  83 SE3       30.26S
CORVALLIS      CLEAR     48  45  87 NW10      30.26F
EUGENE         CLEAR     45  42  89 E5        30.26S
$$

ORZ021-028-181000-
SOUTHWEST OREGON


CITY           SKY/WX    TMP DP  RH WIND       PRES   REMARKS
NORTH BEND     PTCLDY    48  48 100 CALM      30.28S
BROOKINGS      CLEAR     48  48 100 CALM      30.12F FOG
ROSEBURG       CLEAR     58  45  62 N5        30.23S
SEXTON SUMMIT  CLEAR     46  43  89 N12G18    30.21S
MEDFORD        CLEAR     53  42  66 SW5       30.17S
$$

ORZ014>016-041-181000-
COLUMBIA GORGE


CITY           SKY/WX    TMP DP  RH WIND       PRES   REMARKS
TROUTDALE      CLEAR     48  42  80 CALM      30.26S
THE DALLES     CLEAR     58  41  53 NW16      30.18R
$$

ORZ029>031-041-044-049-050-061>064-502-503-505>511-181000-
EASTERN OREGON


CITY           SKY/WX    TMP DP  RH WIND       PRES   REMARKS
REDMOND        CLEAR     33  28  81 S3        30.22S
BEND           CLEAR     39  32  75 CALM      30.23S
PRINEVILLE     CLEAR     43  34  70 CALM      30.22S
KLAMATH FALLS  CLEAR     44  35  70 N5        30.19S
LAKEVIEW       CLEAR     46  23  39 N12       30.21S
HERMISTON      CLEAR     45  37  73 S3        30.17R
PENDLETON      CLEAR     46  37  71 SE7       30.18R
JOHN DAY       CLEAR     46  34  64 E7        30.20S
MEACHAM        CLEAR     31  28  89 CALM      30.21S
LA GRANDE      CLEAR     41  27  56 SE7       30.17R
BAKER CITY     CLEAR     43  30  60 CALM      30.17R
BURNS          CLEAR     41  28  60 W10       30.18R
ROME             N/A     43  22  43 NE5       30.13R
ONTARIO        CLEAR     58  30  34 NW15      30.09S
$$


USA.gov is the U.S. government's official web portal to all federal, state and local government web resources and services.